Time,TemperatureF,DewpointF,PressureIn,WindDirection,WindDirectionDegrees,WindSpeedMPH,WindSpeedGustMPH,Humidity,HourlyPrecipIn,Conditions,Clouds,dailyrainin,SoftwareType,DateUTC
2013-01-12 00:02:00,25.6,25.4,30.29,SE,128,0.0,0.0,99,0.00,RA,OVC,0.00,WeatherDisplay:10.37,2013-01-12 08:02:00,
2013-01-12 00:07:00,25.5,25.3,30.29,SE,128,0.0,0.0,99,0.00,RA,OVC,0.00,WeatherDisplay:10.37,2013-01-12 08:07:00,
2013-01-12 00:12:00,25.4,25.2,30.29,SE,128,0.0,0.0,99,0.00,,OVC,0.00,WeatherDisplay:10.37,2013-01-12 08:12:00,
2013-01-12 00:17:00,25.4,25.1,30.29,SE,128,0.0,0.0,99,0.00,,OVC,0.00,WeatherDisplay:10.37,2013-01-12 08:17:00,
2013-01-12 00:22:00,25.4,25.2,30.29,SE,128,0.0,0.0,99,0.00,,OVC,0.00,WeatherDisplay:10.37,2013-01-12 08:22:00,
2013-01-12 00:27:00,25.5,25.2,30.29,SE,128,0.0,0.0,99,0.00,,OVC,0.00,WeatherDisplay:10.37,2013-01-12 08:27:00,
2013-01-12 00:32:00,25.5,25.3,30.29,SE,128,0.0,0.0,99,0.00,,OVC,0.00,WeatherDisplay:10.37,2013-01-12 08:32:00,
2013-01-12 00:37:00,25.6,25.4,30.29,SE,128,0.0,0.0,99,0.00,,OVC,0.00,WeatherDisplay:10.37,2013-01-12 08:37:00,
2013-01-12 00:42:00,25.6,25.4,30.29,SE,128,0.0,0.0,99,0.00,,OVC,0.00,WeatherDisplay:10.37,2013-01-12 08:42:00,
2013-01-12 00:47:00,25.5,25.3,30.29,SE,128,0.0,0.0,99,0.00,,OVC,0.00,WeatherDisplay:10.37,2013-01-12 08:47:00,
2013-01-12 00:52:00,25.5,25.3,30.29,SE,128,0.0,0.0,99,0.00,,OVC,0.00,WeatherDisplay:10.37,2013-01-12 08:52:00,
2013-01-12 00:57:00,25.5,25.3,30.29,SE,128,0.0,0.0,99,0.00,,OVC,0.00,WeatherDisplay:10.37,2013-01-12 08:57:00,
2013-01-12 01:02:00,25.4,25.2,30.29,SE,128,0.0,0.0,99,0.00,,OVC,0.00,WeatherDisplay:10.37,2013-01-12 09:02:00,
2013-01-12 01:07:00,25.4,25.2,30.30,SE,128,0.0,0.0,99,0.00,,OVC,0.00,WeatherDisplay:10.37,2013-01-12 09:07:00,
2013-01-12 01:12:00,25.3,25.0,30.30,SE,128,0.0,0.0,99,0.00,,OVC,0.00,WeatherDisplay:10.37,2013-01-12 09:12:00,
2013-01-12 01:17:00,25.2,25.0,30.30,SE,128,0.0,0.0,99,0.00,,OVC,0.00,WeatherDisplay:10.37,2013-01-12 09:17:00,
2013-01-12 01:22:00,25.1,24.6,30.30,SE,128,0.0,0.0,98,0.00,,OVC,0.00,WeatherDisplay:10.37,2013-01-12 09:22:00,
2013-01-12 01:27:00,25.0,24.5,30.30,SE,128,0.0,0.0,98,0.00,,OVC,0.00,WeatherDisplay:10.37,2013-01-12 09:27:00,
2013-01-12 01:32:00,24.9,24.4,30.30,SE,128,0.0,0.0,98,0.00,,OVC,0.00,WeatherDisplay:10.37,2013-01-12 09:32:00,
2013-01-12 01:37:00,24.8,24.3,30.30,SE,128,0.0,0.0,98,0.00,,OVC,0.00,WeatherDisplay:10.37,2013-01-12 09:37:00,
2013-01-12 01:42:00,24.8,24.3,30.30,SE,128,0.0,0.0,98,0.00,,OVC,0.00,WeatherDisplay:10.37,2013-01-12 09:42:00,
2013-01-12 01:52:00,25.3,25.0,30.30,SE,128,0.0,0.0,99,0.00,,OVC,0.00,WeatherDisplay:10.37,2013-01-12 09:52:00,
2013-01-12 01:57:00,25.3,25.1,30.30,SE,128,0.0,0.0,99,0.00,,OVC,0.00,WeatherDisplay:10.37,2013-01-12 09:57:00,
2013-01-12 02:02:00,25.3,25.1,30.30,SE,128,0.0,0.0,99,0.00,,OVC,0.00,WeatherDisplay:10.37,2013-01-12 10:02:00,
2013-01-12 02:07:00,25.3,25.1,30.30,SE,128,0.0,0.0,99,0.00,,OVC,0.00,WeatherDisplay:10.37,2013-01-12 10:07:00,
2013-01-12 02:12:00,25.2,25.0,30.30,SE,128,0.0,0.0,99,0.00,,OVC,0.00,WeatherDisplay:10.37,2013-01-12 10:12:00,
2013-01-12 02:17:00,25.3,25.1,30.30,SE,128,0.0,0.0,99,0.00,,OVC,0.00,WeatherDisplay:10.37,2013-01-12 10:17:00,
2013-01-12 02:22:00,25.4,25.2,30.30,SE,128,0.0,0.0,99,0.00,,OVC,0.00,WeatherDisplay:10.37,2013-01-12 10:22:00,
2013-01-12 02:27:00,25.4,24.9,30.30,SE,128,0.0,0.0,98,0.00,,OVC,0.00,WeatherDisplay:10.37,2013-01-12 10:27:00,
2013-01-12 02:32:00,25.1,24.9,30.31,SE,128,0.0,0.0,99,0.00,,OVC,0.00,WeatherDisplay:10.37,2013-01-12 10:32:00,
2013-01-12 02:37:00,24.9,24.4,30.31,SE,128,0.0,0.0,98,0.00,,OVC,0.00,WeatherDisplay:10.37,2013-01-12 10:37:00,
2013-01-12 02:42:00,24.7,24.2,30.31,SE,128,0.0,0.0,98,0.00,,OVC,0.00,WeatherDisplay:10.37,2013-01-12 10:42:00,
2013-01-12 02:47:00,24.7,24.2,30.31,SE,128,0.0,0.0,98,0.00,,OVC,0.00,WeatherDisplay:10.37,2013-01-12 10:47:00,
2013-01-12 02:52:00,24.7,24.2,30.30,SE,128,0.0,0.0,98,0.00,,OVC,0.00,WeatherDisplay:10.37,2013-01-12 10:52:00,
2013-01-12 02:57:00,24.8,24.3,30.30,SE,128,0.0,0.0,98,0.00,,OVC,0.00,WeatherDisplay:10.37,2013-01-12 10:57:00,
2013-01-12 03:02:00,24.9,24.4,30.30,SE,128,0.0,0.0,98,0.00,,OVC,0.00,WeatherDisplay:10.37,2013-01-12 11:02:00,
2013-01-12 03:07:00,24.8,24.3,30.30,SE,128,0.0,0.0,98,0.00,,OVC,0.00,WeatherDisplay:10.37,2013-01-12 11:07:00,
2013-01-12 03:12:00,24.7,24.3,30.30,SE,128,0.0,0.0,98,0.00,,OVC,0.00,WeatherDisplay:10.37,2013-01-12 11:12:00,
2013-01-12 03:17:00,24.7,24.2,30.30,SE,128,0.0,0.0,98,0.00,,OVC,0.00,WeatherDisplay:10.37,2013-01-12 11:17:00,
2013-01-12 03:22:00,24.6,24.1,30.30,SE,128,0.0,0.0,98,0.00,,OVC,0.00,WeatherDisplay:10.37,2013-01-12 11:22:00,
2013-01-12 03:27:00,24.6,24.1,30.30,SE,128,0.0,0.0,98,0.00,,OVC,0.00,WeatherDisplay:10.37,2013-01-12 11:27:00,
2013-01-12 03:32:00,24.7,24.2,30.30,SE,128,0.0,0.0,98,0.00,,OVC,0.00,WeatherDisplay:10.37,2013-01-12 11:32:00,
2013-01-12 03:37:00,24.7,24.2,30.30,SE,128,0.0,0.0,98,0.00,,OVC,0.00,WeatherDisplay:10.37,2013-01-12 11:37:00,
2013-01-12 03:42:00,24.7,24.2,30.30,SE,128,0.0,0.0,98,0.00,,OVC,0.00,WeatherDisplay:10.37,2013-01-12 11:42:00,
2013-01-12 03:47:00,24.7,24.2,30.30,SE,128,0.0,0.0,98,0.00,,OVC,0.00,WeatherDisplay:10.37,2013-01-12 11:47:00,
2013-01-12 03:52:00,24.7,24.2,30.30,SE,128,0.0,0.0,98,0.00,,OVC,0.00,WeatherDisplay:10.37,2013-01-12 11:52:00,
2013-01-12 03:57:00,24.7,24.2,30.30,SE,128,0.0,0.0,98,0.00,,OVC,0.00,WeatherDisplay:10.37,2013-01-12 11:57:00,
2013-01-12 04:02:00,24.8,24.3,30.30,SE,128,0.0,0.0,98,0.00,,OVC,0.00,WeatherDisplay:10.37,2013-01-12 12:02:00,
2013-01-12 04:07:00,24.8,24.3,30.30,SE,128,0.0,0.0,98,0.00,,OVC,0.00,WeatherDisplay:10.37,2013-01-12 12:07:00,
2013-01-12 04:12:00,24.7,24.2,30.31,SE,128,0.0,0.0,98,0.00,,OVC,0.00,WeatherDisplay:10.37,2013-01-12 12:12:00,
2013-01-12 04:17:00,24.7,24.2,30.31,SE,128,0.0,0.0,98,0.00,,OVC,0.00,WeatherDisplay:10.37,2013-01-12 12:17:00,
2013-01-12 04:22:00,24.5,24.0,30.30,SE,128,0.0,0.0,98,0.00,,OVC,0.00,WeatherDisplay:10.37,2013-01-12 12:22:00,
2013-01-12 04:27:00,24.3,23.8,30.30,SE,128,0.0,0.0,98,0.00,,OVC,0.00,WeatherDisplay:10.37,2013-01-12 12:27:00,
2013-01-12 04:32:00,24.1,23.6,30.31,SE,128,0.0,0.0,98,0.00,,OVC,0.00,WeatherDisplay:10.37,2013-01-12 12:32:00,
2013-01-12 04:37:00,24.1,23.6,30.31,SE,128,0.0,0.0,98,0.00,,OVC,0.00,WeatherDisplay:10.37,2013-01-12 12:37:00,
2013-01-12 04:42:00,24.0,23.5,30.31,SE,128,0.0,0.0,98,0.00,,OVC,0.00,WeatherDisplay:10.37,2013-01-12 12:42:00,
2013-01-12 04:47:00,24.0,23.5,30.31,SE,128,0.0,0.0,98,0.00,,OVC,0.00,WeatherDisplay:10.37,2013-01-12 12:47:00,
2013-01-12 04:52:00,24.1,23.6,30.31,SE,128,0.0,0.0,98,0.00,,OVC,0.00,WeatherDisplay:10.37,2013-01-12 12:52:00,
2013-01-12 04:57:00,24.2,23.7,30.31,SE,128,0.0,0.0,98,0.00,,OVC,0.00,WeatherDisplay:10.37,2013-01-12 12:57:00,
2013-01-12 05:02:00,24.1,23.6,30.31,SE,128,0.0,0.0,98,0.00,,OVC,0.00,WeatherDisplay:10.37,2013-01-12 13:02:00,
2013-01-12 05:07:00,23.9,23.4,30.31,SE,128,0.0,0.0,98,0.00,,OVC,0.00,WeatherDisplay:10.37,2013-01-12 13:07:00,
2013-01-12 05:12:00,23.8,23.3,30.30,SE,128,0.0,0.0,98,0.00,,OVC,0.00,WeatherDisplay:10.37,2013-01-12 13:12:00,
2013-01-12 05:17:00,23.8,23.3,30.30,SE,128,0.0,0.0,98,0.00,,OVC,0.00,WeatherDisplay:10.37,2013-01-12 13:17:00,
2013-01-12 05:22:00,23.9,23.4,30.31,SE,128,0.0,0.0,98,0.00,,OVC,0.00,WeatherDisplay:10.37,2013-01-12 13:22:00,
2013-01-12 05:27:00,23.9,23.4,30.31,SE,128,0.0,0.0,98,0.00,,OVC,0.00,WeatherDisplay:10.37,2013-01-12 13:27:00,
2013-01-12 05:32:00,24.1,23.6,30.30,SE,128,0.0,0.0,98,0.00,,OVC,0.00,WeatherDisplay:10.37,2013-01-12 13:32:00,
2013-01-12 05:37:00,24.3,23.8,30.31,SE,128,0.0,0.0,98,0.00,,OVC,0.00,WeatherDisplay:10.37,2013-01-12 13:37:00,
2013-01-12 05:42:00,24.5,24.0,30.31,SE,128,0.0,0.0,98,0.00,,OVC,0.00,WeatherDisplay:10.37,2013-01-12 13:42:00,
2013-01-12 05:47:00,24.6,24.1,30.31,SE,128,0.0,0.0,98,0.00,,OVC,0.00,WeatherDisplay:10.37,2013-01-12 13:47:00,
2013-01-12 05:52:00,24.6,24.1,30.30,SE,128,0.0,0.0,98,0.00,,OVC,0.00,WeatherDisplay:10.37,2013-01-12 13:52:00,
2013-01-12 05:57:00,24.6,24.1,30.31,SE,128,0.0,0.0,98,0.00,,OVC,0.00,WeatherDisplay:10.37,2013-01-12 13:57:00,
2013-01-12 06:02:00,24.5,24.1,30.30,SE,128,0.0,0.0,98,0.00,,OVC,0.00,WeatherDisplay:10.37,2013-01-12 14:02:00,
2013-01-12 06:07:00,24.7,24.2,30.30,SE,128,0.0,0.0,98,0.00,,OVC,0.00,WeatherDisplay:10.37,2013-01-12 14:07:00,
2013-01-12 06:12:00,24.7,24.2,30.30,SE,128,0.0,0.0,98,0.00,,OVC,0.00,WeatherDisplay:10.37,2013-01-12 14:12:00,
2013-01-12 06:17:00,24.5,24.0,30.30,SE,128,0.0,0.0,98,0.00,,OVC,0.00,WeatherDisplay:10.37,2013-01-12 14:17:00,
2013-01-12 06:22:00,24.6,24.1,30.30,SE,128,0.0,0.0,98,0.00,,OVC,0.00,WeatherDisplay:10.37,2013-01-12 14:22:00,
2013-01-12 06:27:00,24.7,24.2,30.31,SE,128,0.0,0.0,98,0.00,,OVC,0.00,WeatherDisplay:10.37,2013-01-12 14:27:00,
2013-01-12 06:32:00,24.8,24.3,30.31,SE,128,0.0,0.0,98,0.00,,OVC,0.00,WeatherDisplay:10.37,2013-01-12 14:32:00,
2013-01-12 06:37:00,25.0,24.5,30.31,SE,128,0.0,0.0,98,0.00,,OVC,0.00,WeatherDisplay:10.37,2013-01-12 14:37:00,
2013-01-12 06:42:00,25.1,24.6,30.31,SE,128,0.0,0.0,98,0.00,,OVC,0.00,WeatherDisplay:10.37,2013-01-12 14:42:00,
2013-01-12 06:47:00,25.1,24.6,30.31,SE,128,0.0,0.0,98,0.00,,OVC,0.00,WeatherDisplay:10.37,2013-01-12 14:47:00,
2013-01-12 06:52:00,25.1,24.6,30.31,SE,128,0.0,0.0,98,0.00,,OVC,0.00,WeatherDisplay:10.37,2013-01-12 14:52:00,
2013-01-12 06:57:00,24.9,24.4,30.31,SE,128,0.0,0.0,98,0.00,,OVC,0.00,WeatherDisplay:10.37,2013-01-12 14:57:00,
2013-01-12 07:02:00,24.5,24.0,30.31,SE,128,0.0,0.0,98,0.00,,OVC,0.00,WeatherDisplay:10.37,2013-01-12 15:02:00,
2013-01-12 07:07:00,24.5,24.0,30.31,SE,128,0.0,0.0,98,0.00,,OVC,0.00,WeatherDisplay:10.37,2013-01-12 15:07:00,
2013-01-12 07:12:00,24.6,24.1,30.31,SE,128,0.0,0.0,98,0.00,,OVC,0.00,WeatherDisplay:10.37,2013-01-12 15:12:00,
2013-01-12 07:17:00,24.7,24.2,30.32,SE,128,0.0,0.0,98,0.00,,OVC,0.00,WeatherDisplay:10.37,2013-01-12 15:17:00,
2013-01-12 07:22:00,24.6,24.1,30.32,SE,128,0.0,0.0,98,0.00,,OVC,0.00,WeatherDisplay:10.37,2013-01-12 15:22:00,
2013-01-12 07:27:00,24.4,23.9,30.32,SE,128,0.0,0.0,98,0.00,CLR,OVC,0.00,WeatherDisplay:10.37,2013-01-12 15:27:00,
2013-01-12 07:32:00,24.2,23.7,30.32,SE,128,0.0,0.0,98,0.00,CLR,OVC,0.00,WeatherDisplay:10.37,2013-01-12 15:32:00,
2013-01-12 07:37:00,23.9,23.4,30.33,SE,128,0.0,0.0,98,0.00,CLR,OVC,0.00,WeatherDisplay:10.37,2013-01-12 15:37:00,
2013-01-12 07:42:00,23.8,23.3,30.33,SE,128,0.0,0.0,98,0.00,CLR,OVC,0.00,WeatherDisplay:10.37,2013-01-12 15:42:00,
2013-01-12 07:47:00,23.8,23.3,30.33,SE,128,0.0,0.0,98,0.00,CLR,OVC,0.00,WeatherDisplay:10.37,2013-01-12 15:47:00,
2013-01-12 07:52:00,23.8,23.1,30.33,SE,128,0.0,0.0,97,0.00,CLR,OVC,0.00,WeatherDisplay:10.37,2013-01-12 15:52:00,
2013-01-12 07:57:00,23.7,23.0,30.33,SE,128,0.0,0.0,97,0.00,CLR,OVC,0.00,WeatherDisplay:10.37,2013-01-12 15:57:00,
2013-01-12 08:02:00,23.7,23.0,30.33,SE,128,0.0,0.0,97,0.00,CLR,OVC,0.00,WeatherDisplay:10.37,2013-01-12 16:02:00,
2013-01-12 08:07:00,23.7,23.0,30.33,SE,128,0.0,0.0,97,0.00,CLR,OVC,0.00,WeatherDisplay:10.37,2013-01-12 16:07:00,
2013-01-12 08:12:00,23.8,23.1,30.33,SE,128,0.0,0.0,97,0.00,CLR,OVC,0.00,WeatherDisplay:10.37,2013-01-12 16:12:00,
2013-01-12 08:17:00,23.8,23.3,30.34,SE,128,0.0,0.0,98,0.00,CLR,OVC,0.00,WeatherDisplay:10.37,2013-01-12 16:17:00,
2013-01-12 08:22:00,23.5,22.8,30.34,SE,128,0.0,0.0,97,0.00,CLR,OVC,0.00,WeatherDisplay:10.37,2013-01-12 16:22:00,
2013-01-12 08:27:00,23.4,22.7,30.34,SE,128,0.0,0.0,97,0.00,CLR,OVC,0.00,WeatherDisplay:10.37,2013-01-12 16:27:00,
2013-01-12 08:32:00,23.3,22.6,30.34,SE,128,0.0,0.0,97,0.00,CLR,OVC,0.00,WeatherDisplay:10.37,2013-01-12 16:32:00,
2013-01-12 08:37:00,23.3,22.6,30.35,SE,128,0.0,0.0,97,0.00,CLR,OVC,0.00,WeatherDisplay:10.37,2013-01-12 16:37:00,
2013-01-12 08:42:00,23.3,22.6,30.35,SE,128,0.0,0.0,97,0.00,CLR,OVC,0.00,WeatherDisplay:10.37,2013-01-12 16:42:00,
2013-01-12 08:47:00,23.4,22.7,30.35,SE,128,0.0,0.0,97,0.00,CLR,OVC,0.00,WeatherDisplay:10.37,2013-01-12 16:47:00,
2013-01-12 08:52:00,23.6,22.9,30.35,SE,128,0.0,0.0,97,0.00,CLR,OVC,0.00,WeatherDisplay:10.37,2013-01-12 16:52:00,
2013-01-12 08:57:00,23.7,23.0,30.35,SE,128,0.0,0.0,97,0.00,CLR,OVC,0.00,WeatherDisplay:10.37,2013-01-12 16:57:00,
2013-01-12 09:02:00,23.9,23.4,30.35,SE,128,0.0,0.0,98,0.00,CLR,OVC,0.00,WeatherDisplay:10.37,2013-01-12 17:02:00,
2013-01-12 09:07:00,24.1,23.6,30.35,SE,128,0.0,0.0,98,0.00,CLR,OVC,0.00,WeatherDisplay:10.37,2013-01-12 17:07:00,
2013-01-12 09:12:00,24.3,23.8,30.35,SE,128,0.0,0.0,98,0.00,CLR,OVC,0.00,WeatherDisplay:10.37,2013-01-12 17:12:00,
2013-01-12 09:17:00,24.4,23.9,30.35,SE,128,0.0,0.0,98,0.00,CLR,OVC,0.00,WeatherDisplay:10.37,2013-01-12 17:17:00,
2013-01-12 09:22:00,24.4,24.0,30.35,SE,128,0.0,0.0,98,0.00,CLR,OVC,0.00,WeatherDisplay:10.37,2013-01-12 17:22:00,
2013-01-12 09:27:00,24.5,24.0,30.35,SE,128,0.0,0.0,98,0.00,CLR,OVC,0.00,WeatherDisplay:10.37,2013-01-12 17:27:00,
2013-01-12 09:32:00,24.6,24.1,30.35,SE,128,0.0,0.0,98,0.00,CLR,OVC,0.00,WeatherDisplay:10.37,2013-01-12 17:32:00,
2013-01-12 09:37:00,24.6,24.1,30.35,SE,128,0.0,0.0,98,0.00,CLR,OVC,0.00,WeatherDisplay:10.37,2013-01-12 17:37:00,
2013-01-12 09:42:00,24.7,24.2,30.35,SE,128,0.0,0.0,98,0.00,CLR,OVC,0.00,WeatherDisplay:10.37,2013-01-12 17:42:00,
2013-01-12 09:47:00,24.7,24.2,30.35,SE,128,0.0,0.0,98,0.00,CLR,OVC,0.00,WeatherDisplay:10.37,2013-01-12 17:47:00,
2013-01-12 09:52:00,24.8,24.3,30.35,SE,128,0.0,0.0,98,0.00,CLR,OVC,0.00,WeatherDisplay:10.37,2013-01-12 17:52:00,
2013-01-12 09:57:00,24.8,24.3,30.35,SE,128,0.0,0.0,98,0.00,CLR,OVC,0.00,WeatherDisplay:10.37,2013-01-12 17:57:00,
2013-01-12 10:02:00,25.0,24.5,30.35,SE,128,0.0,0.0,98,0.00,CLR,OVC,0.00,WeatherDisplay:10.37,2013-01-12 18:02:00,
2013-01-12 10:07:00,25.1,24.6,30.35,SE,128,0.0,0.0,98,0.00,CLR,OVC,0.00,WeatherDisplay:10.37,2013-01-12 18:07:00,
2013-01-12 10:12:00,25.1,24.6,30.35,SE,128,0.0,0.0,98,0.00,CLR,OVC,0.00,WeatherDisplay:10.37,2013-01-12 18:12:00,
2013-01-12 10:17:00,25.1,24.6,30.36,SE,128,0.0,0.0,98,0.00,CLR,OVC,0.00,WeatherDisplay:10.37,2013-01-12 18:17:00,
2013-01-12 10:22:00,25.3,24.8,30.36,SE,128,0.0,0.0,98,0.00,CLR,OVC,0.00,WeatherDisplay:10.37,2013-01-12 18:22:00,
2013-01-12 10:27:00,25.8,25.4,30.36,SE,128,0.0,0.0,98,0.00,CLR,OVC,0.00,WeatherDisplay:10.37,2013-01-12 18:27:00,
2013-01-12 10:32:00,26.6,26.2,30.36,SE,128,0.0,0.0,98,0.00,CLR,OVC,0.00,WeatherDisplay:10.37,2013-01-12 18:32:00,
2013-01-12 10:37:00,27.7,27.2,30.36,SE,128,0.0,0.0,98,0.00,CLR,OVC,0.00,WeatherDisplay:10.37,2013-01-12 18:37:00,
2013-01-12 10:42:00,28.6,28.1,30.36,ESE,121,0.0,0.0,98,0.00,CLR,OVC,0.00,WeatherDisplay:10.37,2013-01-12 18:42:00,
2013-01-12 10:47:00,29.4,28.9,30.36,East,101,0.0,0.0,98,0.00,CLR,OVC,0.00,WeatherDisplay:10.37,2013-01-12 18:47:00,
2013-01-12 10:52:00,29.9,29.5,30.35,East,88,0.0,0.0,98,0.01,RA,OVC,0.01,WeatherDisplay:10.37,2013-01-12 18:52:00,
2013-01-12 10:57:00,30.6,30.1,30.35,ENE,75,0.0,0.0,98,0.01,RA,OVC,0.01,WeatherDisplay:10.37,2013-01-12 18:57:00,
2013-01-12 11:02:00,31.2,30.7,30.35,ENE,77,0.0,0.0,98,0.00,CLR,OVC,0.01,WeatherDisplay:10.37,2013-01-12 19:02:00,
2013-01-12 11:07:00,31.8,31.3,30.35,East,85,0.0,0.0,98,0.00,CLR,OVC,0.01,WeatherDisplay:10.37,2013-01-12 19:07:00,
2013-01-12 11:12:00,32.3,31.8,30.35,East,89,0.0,0.0,98,0.00,CLR,OVC,0.01,WeatherDisplay:10.37,2013-01-12 19:12:00,
2013-01-12 11:17:00,32.5,32.0,30.35,East,91,0.0,0.0,98,0.00,CLR,OVC,0.01,WeatherDisplay:10.37,2013-01-12 19:17:00,
2013-01-12 11:22:00,32.8,32.3,30.35,East,95,0.0,0.0,98,0.00,CLR,OVC,0.01,WeatherDisplay:10.37,2013-01-12 19:22:00,
2013-01-12 11:27:00,33.2,32.7,30.35,ENE,78,0.0,0.0,98,0.00,CLR,OVC,0.01,WeatherDisplay:10.37,2013-01-12 19:27:00,
2013-01-12 11:32:00,33.6,33.0,30.35,ENE,58,0.0,0.0,98,0.00,CLR,OVC,0.01,WeatherDisplay:10.37,2013-01-12 19:32:00,
2013-01-12 11:37:00,33.8,33.0,30.35,ENE,60,0.0,0.0,97,0.00,CLR,OVC,0.01,WeatherDisplay:10.37,2013-01-12 19:37:00,
2013-01-12 11:42:00,33.9,33.1,30.35,ENE,63,0.0,0.0,97,0.00,CLR,OVC,0.01,WeatherDisplay:10.37,2013-01-12 19:42:00,
2013-01-12 11:47:00,34.3,33.5,30.35,NE,54,1.0,0.0,97,0.00,CLR,OVC,0.01,WeatherDisplay:10.37,2013-01-12 19:47:00,
2013-01-12 11:52:00,34.6,33.8,30.35,NE,35,0.0,0.0,97,0.01,RA,OVC,0.02,WeatherDisplay:10.37,2013-01-12 19:52:00,
2013-01-12 11:57:00,35.0,34.2,30.35,North,11,0.0,0.0,97,0.01,RA,OVC,0.02,WeatherDisplay:10.37,2013-01-12 19:57:00,
2013-01-12 12:02:00,35.4,34.3,30.35,North,11,0.0,0.0,96,0.01,RA,OVC,0.03,WeatherDisplay:10.37,2013-01-12 20:02:00,
2013-01-12 12:07:00,35.5,34.5,30.35,NNW,328,2.0,0.0,96,0.01,RA,OVC,0.03,WeatherDisplay:10.37,2013-01-12 20:07:00,
2013-01-12 12:12:00,35.7,34.4,30.35,WNW,297,0.0,0.0,95,0.01,RA,OVC,0.04,WeatherDisplay:10.37,2013-01-12 20:12:00,
2013-01-12 12:17:00,35.9,34.6,30.35,East,87,0.0,0.0,95,0.01,RA,OVC,0.04,WeatherDisplay:10.37,2013-01-12 20:17:00,
2013-01-12 12:22:00,36.2,34.9,30.35,SE,131,1.0,0.0,95,0.01,RA,OVC,0.05,WeatherDisplay:10.37,2013-01-12 20:22:00,
2013-01-12 12:27:00,36.3,34.7,30.34,South,171,1.0,0.0,94,0.01,RA,OVC,0.05,WeatherDisplay:10.37,2013-01-12 20:27:00,
2013-01-12 12:32:00,36.2,34.6,30.34,South,169,0.0,0.0,94,0.01,RA,OVC,0.06,WeatherDisplay:10.37,2013-01-12 20:32:00,
2013-01-12 12:37:00,35.8,34.0,30.34,South,183,0.0,0.0,93,0.01,RA,OVC,0.06,WeatherDisplay:10.37,2013-01-12 20:37:00,
2013-01-12 12:42:00,35.4,33.6,30.34,South,190,0.0,0.0,93,0.01,RA,OVC,0.07,WeatherDisplay:10.37,2013-01-12 20:42:00,
2013-01-12 12:47:00,34.9,33.1,30.34,SSW,196,0.0,0.0,93,0.01,RA,OVC,0.07,WeatherDisplay:10.37,2013-01-12 20:47:00,
2013-01-12 12:52:00,34.4,32.6,30.34,SSW,198,0.0,0.0,93,0.01,RA,OVC,0.08,WeatherDisplay:10.37,2013-01-12 20:52:00,
2013-01-12 12:57:00,34.1,32.6,30.34,SSW,204,0.0,0.0,94,0.01,RA,OVC,0.08,WeatherDisplay:10.37,2013-01-12 20:57:00,
2013-01-12 13:02:00,33.7,32.2,30.34,SW,216,0.0,0.0,94,0.00,CLR,OVC,0.08,WeatherDisplay:10.37,2013-01-12 21:02:00,
2013-01-12 13:07:00,33.2,31.7,30.34,SW,229,0.0,0.0,94,0.00,CLR,OVC,0.08,WeatherDisplay:10.37,2013-01-12 21:07:00,
2013-01-12 13:12:00,32.6,30.8,30.34,WSW,240,0.0,0.0,93,0.00,CLR,OVC,0.08,WeatherDisplay:10.37,2013-01-12 21:12:00,
2013-01-12 13:17:00,32.3,30.8,30.35,WSW,244,0.0,0.0,94,0.00,CLR,OVC,0.08,WeatherDisplay:10.37,2013-01-12 21:17:00,
2013-01-12 13:22:00,32.0,30.7,30.35,WSW,244,0.0,0.0,95,0.00,CLR,OVC,0.08,WeatherDisplay:10.37,2013-01-12 21:22:00,
2013-01-12 13:27:00,31.8,30.5,30.35,WSW,245,0.0,0.0,95,0.01,RA,OVC,0.09,WeatherDisplay:10.37,2013-01-12 21:27:00,
2013-01-12 13:32:00,31.7,30.7,30.36,WSW,245,0.0,0.0,96,0.01,RA,OVC,0.09,WeatherDisplay:10.37,2013-01-12 21:32:00,
2013-01-12 13:37:00,31.9,30.9,30.36,WSW,245,0.0,0.0,96,0.00,CLR,OVC,0.09,WeatherDisplay:10.37,2013-01-12 21:37:00,
2013-01-12 13:42:00,31.9,30.9,30.36,WSW,246,0.0,0.0,96,0.00,CLR,OVC,0.09,WeatherDisplay:10.37,2013-01-12 21:42:00,
2013-01-12 13:47:00,31.7,30.7,30.35,WSW,242,0.0,0.0,96,0.00,CLR,OVC,0.09,WeatherDisplay:10.37,2013-01-12 21:47:00,
2013-01-12 13:52:00,31.6,30.6,30.35,WSW,258,0.0,0.0,96,0.00,CLR,OVC,0.09,WeatherDisplay:10.37,2013-01-12 21:52:00,
2013-01-12 13:57:00,31.4,30.4,30.35,WNW,286,0.0,0.0,96,0.00,CLR,OVC,0.09,WeatherDisplay:10.37,2013-01-12 21:57:00,
2013-01-12 14:02:00,31.4,30.4,30.35,West,280,0.0,0.0,96,0.00,CLR,OVC,0.09,WeatherDisplay:10.37,2013-01-12 22:02:00,
2013-01-12 14:07:00,31.1,30.1,30.36,WNW,285,0.0,0.0,96,0.00,CLR,OVC,0.09,WeatherDisplay:10.37,2013-01-12 22:07:00,
2013-01-12 14:12:00,31.0,30.0,30.36,WNW,286,0.0,0.0,96,0.00,CLR,OVC,0.09,WeatherDisplay:10.37,2013-01-12 22:12:00,
2013-01-12 14:17:00,31.1,30.1,30.36,WNW,290,1.0,0.0,96,0.00,CLR,OVC,0.09,WeatherDisplay:10.37,2013-01-12 22:17:00,
2013-01-12 14:22:00,31.2,30.2,30.36,West,280,1.0,0.0,96,0.00,CLR,OVC,0.09,WeatherDisplay:10.37,2013-01-12 22:22:00,
2013-01-12 14:32:00,31.3,30.5,30.35,West,259,0.0,0.0,97,0.00,CLR,OVC,0.09,WeatherDisplay:10.37,2013-01-12 22:32:00,
2013-01-12 14:37:00,31.4,30.6,30.36,WSW,257,0.0,0.0,97,0.00,CLR,OVC,0.09,WeatherDisplay:10.37,2013-01-12 22:37:00,
2013-01-12 14:42:00,31.4,30.6,30.36,West,261,0.0,0.0,97,0.00,CLR,OVC,0.09,WeatherDisplay:10.37,2013-01-12 22:42:00,
2013-01-12 14:47:00,31.4,30.6,30.36,West,268,0.0,0.0,97,0.00,CLR,OVC,0.09,WeatherDisplay:10.37,2013-01-12 22:47:00,
2013-01-12 14:52:00,31.4,30.6,30.36,West,268,0.0,0.0,97,0.00,CLR,OVC,0.09,WeatherDisplay:10.37,2013-01-12 22:52:00,
2013-01-12 14:57:00,31.2,30.4,30.36,West,268,0.0,0.0,97,0.00,CLR,OVC,0.09,WeatherDisplay:10.37,2013-01-12 22:57:00,
2013-01-12 15:02:00,31.1,30.1,30.36,West,268,0.0,0.0,96,0.00,CLR,OVC,0.09,WeatherDisplay:10.37,2013-01-12 23:02:00,
2013-01-12 15:07:00,31.0,30.0,30.36,West,268,0.0,0.0,96,0.00,CLR,OVC,0.09,WeatherDisplay:10.37,2013-01-12 23:07:00,
2013-01-12 15:12:00,30.9,29.9,30.36,West,278,0.0,0.0,96,0.00,CLR,OVC,0.09,WeatherDisplay:10.37,2013-01-12 23:12:00,
2013-01-12 15:17:00,30.9,30.1,30.36,WNW,290,0.0,0.0,97,0.00,CLR,OVC,0.09,WeatherDisplay:10.37,2013-01-12 23:17:00,
2013-01-12 15:22:00,30.8,30.0,30.37,WNW,294,0.0,0.0,97,0.00,CLR,OVC,0.09,WeatherDisplay:10.37,2013-01-12 23:22:00,
2013-01-12 15:27:00,30.7,29.7,30.37,NW,312,0.0,0.0,96,0.00,CLR,OVC,0.09,WeatherDisplay:10.37,2013-01-12 23:27:00,
2013-01-12 15:32:00,30.6,29.6,30.37,West,276,0.0,0.0,96,0.00,CLR,OVC,0.09,WeatherDisplay:10.37,2013-01-12 23:32:00,
2013-01-12 15:37:00,30.5,29.5,30.37,WSW,253,0.0,0.0,96,0.00,CLR,OVC,0.09,WeatherDisplay:10.37,2013-01-12 23:37:00,
2013-01-12 15:42:00,30.4,29.7,30.37,WSW,254,0.0,0.0,97,0.00,CLR,OVC,0.09,WeatherDisplay:10.37,2013-01-12 23:42:00,
2013-01-12 15:47:00,30.2,29.2,30.36,WSW,254,0.0,0.0,96,0.00,CLR,OVC,0.09,WeatherDisplay:10.37,2013-01-12 23:47:00,
2013-01-12 15:57:00,29.6,28.6,30.36,WSW,256,0.0,0.0,96,0.00,CLR,OVC,0.09,WeatherDisplay:10.37,2013-01-12 23:57:00,
2013-01-12 16:02:00,29.3,28.0,30.35,WSW,256,0.0,0.0,95,0.00,CLR,OVC,0.09,WeatherDisplay:10.37,2013-01-13 00:02:00,
2013-01-12 16:07:00,29.0,27.8,30.35,WSW,256,0.0,0.0,95,0.00,CLR,OVC,0.09,WeatherDisplay:10.37,2013-01-13 00:07:00,
2013-01-12 16:12:00,28.8,27.5,30.35,WSW,256,0.0,0.0,95,0.00,CLR,OVC,0.09,WeatherDisplay:10.37,2013-01-13 00:12:00,
2013-01-12 16:22:00,28.2,27.0,30.36,WSW,256,0.0,0.0,95,0.00,CLR,OVC,0.09,WeatherDisplay:10.37,2013-01-13 00:22:00,
2013-01-12 16:27:00,28.0,26.8,30.35,WSW,256,0.0,0.0,95,0.00,CLR,OVC,0.09,WeatherDisplay:10.37,2013-01-13 00:27:00,
2013-01-12 16:32:00,27.8,26.6,30.36,WSW,256,0.0,0.0,95,0.00,CLR,OVC,0.09,WeatherDisplay:10.37,2013-01-13 00:32:00,
2013-01-12 16:37:00,27.6,26.6,30.36,WSW,256,0.0,0.0,96,0.00,CLR,OVC,0.09,WeatherDisplay:10.37,2013-01-13 00:37:00,
2013-01-12 16:42:00,27.4,26.4,30.36,WSW,256,0.0,0.0,96,0.00,CLR,OVC,0.09,WeatherDisplay:10.37,2013-01-13 00:42:00,
2013-01-12 16:47:00,27.3,26.3,30.36,WSW,256,0.0,0.0,96,0.00,CLR,OVC,0.09,WeatherDisplay:10.37,2013-01-13 00:47:00,
2013-01-12 16:52:00,27.1,25.9,30.36,WSW,256,0.0,0.0,95,0.00,CLR,OVC,0.09,WeatherDisplay:10.37,2013-01-13 00:52:00,
2013-01-12 16:57:00,26.9,25.9,30.36,WSW,256,0.0,0.0,96,0.00,CLR,OVC,0.09,WeatherDisplay:10.37,2013-01-13 00:57:00,
2013-01-12 17:02:00,26.7,25.5,30.36,WSW,256,0.0,0.0,95,0.00,,OVC,0.09,WeatherDisplay:10.37,2013-01-13 01:02:00,
2013-01-12 17:07:00,26.6,25.4,30.37,WSW,256,0.0,0.0,95,0.00,,OVC,0.09,WeatherDisplay:10.37,2013-01-13 01:07:00,
2013-01-12 17:12:00,26.5,25.3,30.37,WSW,256,0.0,0.0,95,0.00,,OVC,0.09,WeatherDisplay:10.37,2013-01-13 01:12:00,
2013-01-12 17:17:00,26.3,25.1,30.37,WSW,256,0.0,0.0,95,0.00,,OVC,0.09,WeatherDisplay:10.37,2013-01-13 01:17:00,
2013-01-12 17:22:00,26.2,25.0,30.37,WSW,256,0.0,0.0,95,0.00,,OVC,0.09,WeatherDisplay:10.37,2013-01-13 01:22:00,
2013-01-12 17:27:00,26.1,25.1,30.37,WSW,256,0.0,0.0,96,0.00,,OVC,0.09,WeatherDisplay:10.37,2013-01-13 01:27:00,
2013-01-12 17:32:00,26.2,25.2,30.37,WSW,256,0.0,0.0,96,0.00,,OVC,0.09,WeatherDisplay:10.37,2013-01-13 01:32:00,
2013-01-12 17:42:00,26.2,25.2,30.37,WSW,256,0.0,0.0,96,0.00,,OVC,0.09,WeatherDisplay:10.37,2013-01-13 01:42:00,
2013-01-12 17:47:00,26.2,25.2,30.37,WSW,256,0.0,0.0,96,0.00,,OVC,0.09,WeatherDisplay:10.37,2013-01-13 01:47:00,
2013-01-12 17:52:00,26.2,25.2,30.37,WSW,256,0.0,0.0,96,0.00,,OVC,0.09,WeatherDisplay:10.37,2013-01-13 01:52:00,
2013-01-12 17:57:00,26.2,25.5,30.37,WSW,256,0.0,0.0,97,0.00,,OVC,0.09,WeatherDisplay:10.37,2013-01-13 01:57:00,
2013-01-12 18:02:00,26.2,25.5,30.37,WSW,256,0.0,0.0,97,0.00,,OVC,0.09,WeatherDisplay:10.37,2013-01-13 02:02:00,
2013-01-12 18:07:00,26.1,25.4,30.37,WSW,256,0.0,0.0,97,0.00,,OVC,0.09,WeatherDisplay:10.37,2013-01-13 02:07:00,
2013-01-12 18:12:00,26.0,25.2,30.37,WSW,256,0.0,0.0,97,0.00,,OVC,0.09,WeatherDisplay:10.37,2013-01-13 02:12:00,
2013-01-12 18:17:00,25.8,25.1,30.37,WSW,256,0.0,0.0,97,0.00,,OVC,0.09,WeatherDisplay:10.37,2013-01-13 02:17:00,
2013-01-12 18:22:00,25.7,24.7,30.37,WSW,256,0.0,0.0,96,0.00,,OVC,0.09,WeatherDisplay:10.37,2013-01-13 02:22:00,
2013-01-12 18:27:00,25.5,24.5,30.38,WSW,256,0.0,0.0,96,0.00,,OVC,0.09,WeatherDisplay:10.37,2013-01-13 02:27:00,
2013-01-12 18:32:00,25.5,24.8,30.37,WSW,256,0.0,0.0,97,0.00,,OVC,0.09,WeatherDisplay:10.37,2013-01-13 02:32:00,
2013-01-12 18:37:00,25.4,24.7,30.37,WSW,256,0.0,0.0,97,0.00,,OVC,0.09,WeatherDisplay:10.37,2013-01-13 02:37:00,
2013-01-12 18:42:00,25.4,24.7,30.38,WSW,256,0.0,0.0,97,0.00,,OVC,0.09,WeatherDisplay:10.37,2013-01-13 02:42:00,
2013-01-12 18:47:00,25.3,24.6,30.38,WSW,256,0.0,0.0,97,0.00,,OVC,0.09,WeatherDisplay:10.37,2013-01-13 02:47:00,
2013-01-12 18:52:00,25.3,24.6,30.38,WSW,256,0.0,0.0,97,0.00,,OVC,0.09,WeatherDisplay:10.37,2013-01-13 02:52:00,
2013-01-12 18:57:00,25.4,24.7,30.38,WSW,256,0.0,0.0,97,0.00,,OVC,0.09,WeatherDisplay:10.37,2013-01-13 02:57:00,
2013-01-12 19:02:00,25.4,24.7,30.38,WSW,256,0.0,0.0,97,0.00,,OVC,0.09,WeatherDisplay:10.37,2013-01-13 03:02:00,
2013-01-12 19:07:00,25.4,24.7,30.38,WSW,256,0.0,0.0,97,0.00,,OVC,0.09,WeatherDisplay:10.37,2013-01-13 03:07:00,
2013-01-12 19:12:00,25.4,24.7,30.38,WSW,256,0.0,0.0,97,0.00,,OVC,0.09,WeatherDisplay:10.37,2013-01-13 03:12:00,
2013-01-12 19:17:00,25.3,24.6,30.38,WSW,256,0.0,0.0,97,0.00,,OVC,0.09,WeatherDisplay:10.37,2013-01-13 03:17:00,
2013-01-12 19:22:00,25.1,24.4,30.38,WSW,256,0.0,0.0,97,0.00,,OVC,0.09,WeatherDisplay:10.37,2013-01-13 03:22:00,
2013-01-12 19:27:00,24.9,24.2,30.38,WSW,256,0.0,0.0,97,0.00,,OVC,0.09,WeatherDisplay:10.37,2013-01-13 03:27:00,
2013-01-12 19:32:00,24.8,24.1,30.38,WSW,256,0.0,0.0,97,0.00,,OVC,0.09,WeatherDisplay:10.37,2013-01-13 03:32:00,
2013-01-12 19:37:00,24.8,24.1,30.38,WSW,256,0.0,0.0,97,0.00,,OVC,0.09,WeatherDisplay:10.37,2013-01-13 03:37:00,
2013-01-12 19:42:00,24.8,24.1,30.38,WSW,256,0.0,0.0,97,0.00,,OVC,0.09,WeatherDisplay:10.37,2013-01-13 03:42:00,
2013-01-12 19:47:00,24.8,24.1,30.38,WSW,256,0.0,0.0,97,0.00,,OVC,0.09,WeatherDisplay:10.37,2013-01-13 03:47:00,
2013-01-12 19:52:00,24.8,24.1,30.38,WSW,256,0.0,0.0,97,0.00,,OVC,0.09,WeatherDisplay:10.37,2013-01-13 03:52:00,
2013-01-12 19:57:00,24.8,24.1,30.38,WSW,256,0.0,0.0,97,0.00,,OVC,0.09,WeatherDisplay:10.37,2013-01-13 03:57:00,
2013-01-12 20:02:00,24.8,24.1,30.38,WSW,256,0.0,0.0,97,0.00,,OVC,0.09,WeatherDisplay:10.37,2013-01-13 04:02:00,
2013-01-12 20:07:00,24.8,24.1,30.38,WSW,256,0.0,0.0,97,0.00,,OVC,0.09,WeatherDisplay:10.37,2013-01-13 04:07:00,
2013-01-12 20:12:00,24.8,24.1,30.38,WSW,256,0.0,0.0,97,0.00,,OVC,0.09,WeatherDisplay:10.37,2013-01-13 04:12:00,
2013-01-12 20:17:00,24.8,24.0,30.38,WSW,256,0.0,0.0,97,0.00,,OVC,0.09,WeatherDisplay:10.37,2013-01-13 04:17:00,
2013-01-12 20:22:00,24.7,24.0,30.38,WSW,256,0.0,0.0,97,0.00,,OVC,0.09,WeatherDisplay:10.37,2013-01-13 04:22:00,
2013-01-12 20:27:00,24.7,24.0,30.38,WSW,256,0.0,0.0,97,0.00,,OVC,0.09,WeatherDisplay:10.37,2013-01-13 04:27:00,
2013-01-12 20:32:00,24.6,23.9,30.38,WSW,256,0.0,0.0,97,0.00,,OVC,0.09,WeatherDisplay:10.37,2013-01-13 04:32:00,
2013-01-12 20:37:00,24.5,23.8,30.38,WSW,256,0.0,0.0,97,0.00,,OVC,0.09,WeatherDisplay:10.37,2013-01-13 04:37:00,
2013-01-12 20:42:00,24.4,23.7,30.38,WSW,256,0.0,0.0,97,0.00,,OVC,0.09,WeatherDisplay:10.37,2013-01-13 04:42:00,
2013-01-12 20:47:00,24.5,23.8,30.37,WSW,256,0.0,0.0,97,0.00,,OVC,0.09,WeatherDisplay:10.37,2013-01-13 04:47:00,
2013-01-12 20:52:00,24.5,23.8,30.38,WSW,256,0.0,0.0,97,0.00,,OVC,0.09,WeatherDisplay:10.37,2013-01-13 04:52:00,
2013-01-12 20:57:00,24.5,23.8,30.38,WSW,256,0.0,0.0,97,0.00,,OVC,0.09,WeatherDisplay:10.37,2013-01-13 04:57:00,
2013-01-12 21:07:00,24.4,23.7,30.38,WSW,256,0.0,0.0,97,0.00,,OVC,0.09,WeatherDisplay:10.37,2013-01-13 05:07:00,
2013-01-12 21:12:00,24.4,23.7,30.37,WSW,256,0.0,0.0,97,0.00,,OVC,0.09,WeatherDisplay:10.37,2013-01-13 05:12:00,
2013-01-12 21:17:00,24.4,23.7,30.37,WSW,256,0.0,0.0,97,0.00,,OVC,0.09,WeatherDisplay:10.37,2013-01-13 05:17:00,
2013-01-12 21:22:00,24.4,23.7,30.37,WSW,256,0.0,0.0,97,0.00,,OVC,0.09,WeatherDisplay:10.37,2013-01-13 05:22:00,
2013-01-12 21:27:00,24.4,23.7,30.38,WSW,256,0.0,0.0,97,0.00,,OVC,0.09,WeatherDisplay:10.37,2013-01-13 05:27:00,
2013-01-12 21:32:00,24.4,23.7,30.38,WSW,256,0.0,0.0,97,0.00,,OVC,0.09,WeatherDisplay:10.37,2013-01-13 05:32:00,
2013-01-12 21:37:00,24.3,23.6,30.38,WSW,256,0.0,0.0,97,0.00,,OVC,0.09,WeatherDisplay:10.37,2013-01-13 05:37:00,
2013-01-12 21:42:00,24.2,23.5,30.38,WSW,256,0.0,0.0,97,0.00,,OVC,0.09,WeatherDisplay:10.37,2013-01-13 05:42:00,
2013-01-12 21:47:00,24.1,23.1,30.38,WSW,258,0.0,0.0,96,0.00,,OVC,0.09,WeatherDisplay:10.37,2013-01-13 05:47:00,
2013-01-12 21:52:00,23.9,22.9,30.38,North,11,1.0,0.0,96,0.00,,OVC,0.09,WeatherDisplay:10.37,2013-01-13 05:52:00,
2013-01-12 21:57:00,23.8,22.9,30.38,ENE,62,0.0,0.0,96,0.00,,OVC,0.09,WeatherDisplay:10.37,2013-01-13 05:57:00,
2013-01-12 22:02:00,23.7,22.7,30.38,ENE,65,1.0,0.0,96,0.00,,OVC,0.09,WeatherDisplay:10.37,2013-01-13 06:02:00,
2013-01-12 22:07:00,23.6,22.6,30.38,ENE,65,0.0,0.0,96,0.00,,OVC,0.09,WeatherDisplay:10.37,2013-01-13 06:07:00,
2013-01-12 22:12:00,23.5,22.5,30.39,ENE,65,1.0,0.0,96,0.00,,OVC,0.09,WeatherDisplay:10.37,2013-01-13 06:12:00,
2013-01-12 22:17:00,23.4,22.5,30.39,ENE,66,1.0,0.0,96,0.00,,OVC,0.09,WeatherDisplay:10.37,2013-01-13 06:17:00,
2013-01-12 22:22:00,23.5,22.5,30.39,ENE,66,1.0,0.0,96,0.00,,OVC,0.09,WeatherDisplay:10.37,2013-01-13 06:22:00,
2013-01-12 22:27:00,23.5,22.8,30.39,ENE,72,1.0,0.0,97,0.00,,OVC,0.09,WeatherDisplay:10.37,2013-01-13 06:27:00,
2013-01-12 22:32:00,23.5,22.8,30.39,ENE,77,0.0,0.0,97,0.00,,OVC,0.09,WeatherDisplay:10.37,2013-01-13 06:32:00,
2013-01-12 22:37:00,23.5,22.8,30.39,ENE,76,0.0,0.0,97,0.00,,OVC,0.09,WeatherDisplay:10.37,2013-01-13 06:37:00,
2013-01-12 22:42:00,23.4,22.7,30.39,ENE,76,0.0,0.0,97,0.00,,OVC,0.09,WeatherDisplay:10.37,2013-01-13 06:42:00,
2013-01-12 22:47:00,23.4,22.7,30.40,ENE,76,1.0,0.0,97,0.00,,OVC,0.09,WeatherDisplay:10.37,2013-01-13 06:47:00,
2013-01-12 22:52:00,23.5,22.8,30.40,ENE,76,0.0,0.0,97,0.00,,OVC,0.09,WeatherDisplay:10.37,2013-01-13 06:52:00,
2013-01-12 22:57:00,23.5,22.8,30.40,ENE,76,0.0,0.0,97,0.00,,OVC,0.09,WeatherDisplay:10.37,2013-01-13 06:57:00,
2013-01-12 23:02:00,23.5,22.8,30.40,ENE,76,0.0,0.0,97,0.00,,OVC,0.09,WeatherDisplay:10.37,2013-01-13 07:02:00,
2013-01-12 23:07:00,23.4,22.7,30.40,ENE,76,0.0,0.0,97,0.00,,OVC,0.09,WeatherDisplay:10.37,2013-01-13 07:07:00,
2013-01-12 23:12:00,23.5,22.8,30.40,ENE,76,1.0,0.0,97,0.00,,OVC,0.09,WeatherDisplay:10.37,2013-01-13 07:12:00,
2013-01-12 23:17:00,23.5,22.8,30.41,ENE,76,1.0,0.0,97,0.00,,OVC,0.09,WeatherDisplay:10.37,2013-01-13 07:17:00,
2013-01-12 23:22:00,23.4,22.7,30.41,ENE,76,1.0,0.0,97,0.00,,OVC,0.09,WeatherDisplay:10.37,2013-01-13 07:22:00,
2013-01-12 23:27:00,23.3,22.5,30.41,ENE,76,1.0,0.0,97,0.00,,OVC,0.09,WeatherDisplay:10.37,2013-01-13 07:27:00,
2013-01-12 23:32:00,23.1,22.4,30.41,ENE,76,0.0,0.0,97,0.00,,OVC,0.09,WeatherDisplay:10.37,2013-01-13 07:32:00,
2013-01-12 23:37:00,23.1,22.4,30.41,ENE,76,1.0,0.0,97,0.00,,OVC,0.09,WeatherDisplay:10.37,2013-01-13 07:37:00,
2013-01-12 23:42:00,23.0,22.3,30.41,ENE,76,0.0,0.0,97,0.00,,OVC,0.09,WeatherDisplay:10.37,2013-01-13 07:42:00,
2013-01-12 23:47:00,23.0,22.3,30.41,ENE,76,0.0,0.0,97,0.00,,OVC,0.09,WeatherDisplay:10.37,2013-01-13 07:47:00,
2013-01-12 23:52:00,23.0,22.3,30.41,ENE,76,0.0,0.0,97,0.00,,OVC,0.09,WeatherDisplay:10.37,2013-01-13 07:52:00,
2013-01-12 23:57:00,23.0,22.3,30.41,ENE,76,0.0,0.0,97,0.00,,OVC,0.09,WeatherDisplay:10.37,2013-01-13 07:57:00,